User: anonymous   Login
Location: Bois de la Silve
(44.4667°N, 6.7833°E)
Time: 08:57:39
(UTC+00:00)
Language:

Cosmos 2278 - Orbit

View from above orbital plane
View from above orbital plane
View from above satellite
View from above satellite

Ground track
Ground track

The orbit data is extracted from the following two-line orbital elements,

1 23087U 94023A   20265.75414236 -.00000151 +00000-0 -54931-4 0  9990
2 23087 071.0546 026.3678 0009826 206.9218 153.1396 14.13805106362806
Epoch (UTC): 21 September 2020 18:05:57
Eccentricity: 0.0009826
inclination: 71.0546°
perigee height: 839 km
apogee height: 853 km
right ascension of ascending node: 26.3678°
argument of perigee: 206.9218°
revolutions per day: 14.13805106
mean anomaly at epoch: 153.1396°
orbit number at epoch: 36280

The dashed part of the orbit path shows where the satellite is in the earth's shadow,  

DLR